Wind_Speed
13 13 13 13 14 14 15 16 15 15 14 14 14 13 12 12 11 10 10 9 9 8 8 8 9 8 7 7 7 6 6 6 5 5 4 4 3 2 2 2 3 4 4 4 4 4 4 3 3
13 13 13 13 14 14 16 16 15 15 14 13 13 13 12 12 11 11 10 10 9 8 8 8 8 8 7 7 7 6 6 6 5 5 4 4 3 2 2 2 2 2 3 3 2 3 4 4 4
12 12 12 13 14 16 17 16 15 15 14 13 13 13 12 12 12 11 11 11 11 10 9 8 8 8 7 6 6 6 6 5 5 5 4 4 3 2 1 1 1 2 2 2 2 2 2 3 4
12 12 13 14 14 16 17 17 17 15 15 14 13 13 13 13 13 12 12 13 12 11 10 9 9 8 7 7 6 6 6 5 4 4 4 4 3 2 1 1 1 1 2 2 2 2 2 3 4
12 13 15 16 15 16 17 16 16 15 15 14 14 13 13 13 13 13 13 13 12 11 10 10 9 8 7 6 6 6 6 5 4 4 3 3 3 2 1 1 1 0 1 1 1 2 1 2 2
13 15 16 15 15 15 16 15 15 15 15 14 14 14 13 14 14 13 13 13 12 11 10 9 9 8 7 7 6 6 6 6 5 4 4 3 3 2 2 1 1 1 0 1 1 2 2 2 2
14 14 16 15 14 14 15 15 14 15 15 14 14 14 14 14 14 13 13 12 12 11 10 10 9 8 8 7 7 6 5 5 4 4 4 3 3 2 2 1 2 1 1 1 2 2 3 3 3
13 14 14 13 13 13 14 14 14 15 14 14 14 14 14 14 14 14 14 13 12 11 11 10 9 8 8 7 7 6 6 5 5 4 4 3 3 2 2 2 1 1 2 2 3 3 3 4 5
13 13 13 13 13 13 13 13 13 14 14 14 14 14 13 14 14 15 14 14 13 11 11 10 9 9 8 7 6 6 6 6 5 5 5 4 3 3 2 2 1 1 1 2 3 4 4 4 5
12 13 13 13 13 12 12 12 12 13 13 13 14 14 14 14 14 14 14 14 14 12 11 10 9 9 8 8 7 7 7 6 6 6 6 5 4 3 3 2 1 1 2 2 3 4 4 5 6
11 12 12 12 12 11 11 11 11 12 12 13 14 13 13 13 13 13 13 13 14 14 13 12 11 9 9 9 8 7 7 6 6 7 7 6 5 4 3 1 1 1 2 2 3 3 4 5 6
9 10 10 9 10 10 11 11 10 11 11 12 13 13 13 13 13 13 12 13 13 13 12 12 11 11 10 10 10 9 8 7 7 7 7 7 7 5 3 3 2 2 3 3 3 3 4 4 6
6 7 8 8 9 9 9 10 11 11 11 11 11 12 12 13 13 13 12 12 13 13 12 12 11 11 11 10 10 9 9 8 8 8 7 8 7 6 5 4 4 4 3 3 3 4 4 4 5
5 6 6 6 6 7 8 11 11 10 10 10 10 11 11 11 12 12 12 12 12 12 12 12 11 11 11 11 11 10 9 9 8 8 8 8 7 7 6 6 5 5 4 4 4 4 4 5 5
3 3 4 4 5 6 8 10 11 9 9 10 10 10 10 11 11 11 11 12 12 12 12 12 11 11 11 11 11 10 10 9 9 9 8 8 8 8 8 7 6 6 6 5 4 3 3 4 6
3 2 3 3 4 5 7 10 9 9 9 10 9 9 10 10 10 11 11 12 12 12 12 12 12 11 11 11 11 10 10 9 9 9 8 9 9 10 9 8 7 7 6 6 5 4 4 5 5
2 1 1 1 2 5 7 8 9 8 8 9 9 9 9 10 9 10 11 11 12 12 11 11 11 11 11 11 11 10 11 10 9 8 9 9 10 10 9 9 8 7 7 7 6 6 6 5 5
2 3 2 1 3 5 7 8 8 8 9 8 8 8 8 9 9 10 11 11 11 11 11 11 11 11 11 11 11 11 11 10 9 9 10 10 10 10 9 8 8 7 7 7 7 7 7 6 5
3 4 3 3 3 5 6 6 7 7 8 9 7 8 7 8 9 10 10 11 11 10 10 10 11 11 11 11 11 11 11 10 10 11 11 11 12 12 11 9 8 7 7 7 8 8 7 6 6
6 6 5 3 4 6 7 6 6 5 7 7 8 7 7 7 8 9 9 10 10 10 10 10 10 11 11 10 10 10 11 11 11 12 12 12 12 13 12 10 9 8 9 8 8 9 8 7 6
9 8 7 6 6 8 8 8 7 7 9 8 7 8 7 7 7 8 9 10 10 10 10 10 10 11 11 11 10 10 11 12 12 12 12 12 12 13 12 11 10 10 11 10 9 9 9 8 8
11 11 10 8 8 9 10 10 8 9 9 9 9 9 8 7 7 9 10 10 10 10 10 10 10 11 11 12 12 12 12 12 12 12 12 13 13 13 13 13 12 12 12 12 11 11 10 9 9
11 12 12 10 10 10 10 11 9 9 10 10 10 9 9 9 9 9 10 10 11 11 10 11 11 12 12 13 13 14 14 13 13 13 13 13 14 14 13 13 13 14 14 14 13 13 12 11 10
12 13 13 13 12 11 11 11 10 10 11 10 10 11 11 11 9 10 11 11 12 12 12 12 12 13 13 13 14 14 14 13 13 14 14 14 14 14 14 14 15 15 15 15 14 14 14 13 13
12 12 12 13 13 12 12 13 11 11 11 11 11 12 13 13 12 13 13 11 12 12 12 13 13 13 13 13 13 14 14 14 15 15 15 15 15 15 15 15 15 16 16 16 16 16 16 15 15
13 13 13 13 13 14 14 14 12 13 13 12 12 13 13 14 15 15 14 13 13 13 13 13 14 15 15 15 15 15 15 15 16 17 16 16 16 17 17 17 17 17 18 17 18 18 18 18 18
15 16 15 16 16 16 14 15 13 13 14 13 14 15 16 15 16 15 14 14 14 14 14 14 15 16 16 16 16 16 16 17 17 17 17 17 17 17 18 17 18 19 19 19 20 20 20 20 20
16 16 17 18 18 18 16 16 14 13 13 14 15 16 16 17 17 15 15 15 15 16 16 17 18 18 18 18 18 18 18 18 18 18 17 18 18 19 19 19 20 21 21 21 21 21 22 21 22
18 18 18 19 19 19 19 17 16 16 16 16 17 17 19 19 17 17 16 16 17 17 19 19 19 19 19 19 19 20 20 20 20 20 20 20 20 20 20 20 21 21 22 22 23 23 23 23 23
20 19 19 20 20 21 22 20 17 18 19 18 18 19 19 19 19 19 19 18 18 19 20 21 21 21 21 22 21 22 22 21 22 22 22 22 22 22 22 22 23 23 23 23 24 24 24 24 24
Wind_Direction
79 73 67 62 60 63 61 59 55 51 49 53 53 53 53 56 58 59 57 57 57 59 60 58 62 66 66 67 69 69 68 64 65 70 73 78 84 95 117 136 149 161 174 178 185 185 194 192 193
76 67 64 59 58 61 59 55 56 52 49 51 51 52 53 55 56 56 52 52 52 57 62 61 59 63 62 64 67 68 66 63 60 63 69 69 68 80 124 131 139 153 167 179 184 191 200 193 193
75 65 63 60 56 56 58 56 54 54 50 48 50 53 55 55 57 55 52 51 55 60 61 64 60 60 62 66 66 63 65 62 61 63 62 63 63 74 93 124 157 159 171 183 178 176 181 188 194
68 63 64 58 58 59 56 53 52 51 48 48 48 52 57 56 56 53 50 51 55 60 61 63 62 61 63 64 63 63 65 63 62 59 54 50 53 62 77 101 174 200 204 194 184 184 197 196 196
68 65 62 57 62 61 55 50 48 47 45 48 49 50 52 54 53 52 50 50 53 59 61 62 63 65 63 58 61 57 55 54 53 47 43 41 42 46 45 34 30 280 217 187 202 193 192 188 202
67 60 58 55 57 58 54 49 46 47 45 48 51 50 51 54 54 53 51 50 52 56 57 58 61 64 65 61 59 56 55 52 46 39 31 29 20 11 15 4 335 320 211 237 221 218 221 201 213
69 64 59 54 52 57 54 51 45 44 46 49 51 51 50 51 52 51 51 53 52 53 54 55 61 59 64 63 55 57 58 51 42 36 29 22 11 348 347 326 311 306 278 246 232 222 218 219 234
69 60 56 56 57 56 52 48 44 44 46 47 49 50 50 49 48 48 48 50 53 53 53 56 57 56 59 60 57 56 53 43 35 28 16 7 360 346 324 303 301 293 269 248 248 244 239 234 241
69 63 59 61 62 57 50 47 43 43 45 44 45 46 48 48 47 47 48 46 48 49 50 50 52 57 57 58 59 50 41 39 34 25 15 4 358 350 336 322 312 296 291 269 260 257 247 244 244
72 66 58 55 54 52 48 44 43 40 41 43 45 48 49 49 47 47 47 45 44 45 47 48 49 55 55 52 47 41 37 35 33 30 24 15 15 3 348 336 324 328 323 296 282 265 251 245 244
79 67 59 49 47 46 47 44 46 47 44 44 45 47 47 47 46 45 46 47 46 45 47 48 50 52 49 44 39 35 31 30 31 29 26 23 19 7 5 349 333 334 333 309 285 265 248 249 250
84 71 67 52 45 41 40 40 43 49 45 46 45 44 46 46 43 42 44 45 44 44 46 49 49 46 43 38 34 30 28 27 26 22 21 23 23 13 359 340 345 332 313 296 286 269 261 260 256
97 86 80 63 41 35 35 35 34 43 45 45 46 44 44 47 45 40 42 41 39 39 40 43 46 45 44 39 34 27 23 22 25 21 19 20 19 13 4 7 3 355 335 307 301 293 285 279 267
114 104 85 68 40 23 27 32 32 37 42 42 43 43 41 42 40 40 40 39 36 34 34 35 37 38 37 36 33 28 24 25 24 23 20 18 16 11 8 9 9 4 357 348 329 305 287 281 273
115 114 101 79 41 11 14 19 24 29 33 35 35 35 35 35 32 33 37 37 34 33 30 31 34 34 33 31 28 25 24 24 23 21 18 20 16 12 8 6 1 358 357 353 337 314 295 280 273
132 116 102 83 45 10 10 15 21 23 26 27 27 27 31 32 28 28 30 31 30 31 28 29 29 29 25 24 24 20 17 19 17 13 11 11 11 13 13 6 359 354 351 349 347 322 303 296 278
160 149 114 78 356 344 349 354 5 10 18 18 18 18 17 20 18 21 25 24 24 25 24 23 24 23 19 17 14 13 13 13 9 3 4 8 10 12 7 2 1 357 356 352 338 333 323 314 299
190 218 236 284 317 322 331 339 358 4 7 7 7 9 7 12 10 11 16 19 18 19 19 18 16 15 14 12 8 5 4 7 5 3 1 0 359 360 355 349 351 353 352 350 344 333 334 324 314
222 219 238 249 273 290 306 324 347 3 3 2 354 1 0 1 4 6 10 11 11 10 8 8 6 5 4 2 1 358 356 358 359 358 355 353 352 351 350 343 342 344 344 344 339 335 333 330 322
230 218 233 260 267 286 301 313 323 335 341 348 358 2 5 4 2 2 3 2 2 360 356 357 358 355 353 351 351 350 352 349 347 346 347 347 346 348 348 343 345 349 347 345 341 337 329 321 317
230 230 239 244 249 277 286 289 299 314 323 329 341 345 341 346 351 352 353 355 355 351 347 347 348 344 344 345 344 340 340 337 338 338 339 340 339 340 344 343 343 344 341 339 335 332 326 318 314
230 233 240 244 244 257 271 279 287 298 313 324 330 329 334 336 339 343 343 345 347 345 342 341 339 337 338 338 339 339 334 331 331 331 333 334 333 332 335 336 337 333 329 329 331 331 323 316 312
237 236 237 243 252 257 265 273 279 281 296 315 329 330 332 329 327 330 329 333 338 337 335 332 329 333 333 333 334 334 332 330 330 331 330 327 326 327 329 330 328 324 322 324 324 325 323 318 317
243 238 233 238 246 255 258 263 267 279 290 302 316 319 320 315 315 318 318 328 325 328 328 324 326 329 327 328 330 330 329 328 326 326 326 326 323 321 322 321 320 319 319 318 317 317 318 317 314
239 245 243 241 240 253 251 255 263 272 281 292 302 308 312 308 310 316 314 318 318 324 327 323 322 320 318 321 322 324 323 322 321 320 320 322 320 317 314 313 312 314 315 313 311 311 311 310 309
238 246 251 250 246 251 252 256 265 270 278 289 297 300 304 305 306 311 308 309 314 316 317 317 316 313 314 316 319 321 318 319 319 319 318 316 316 315 312 309 308 309 310 309 308 308 308 306 305
240 244 249 253 252 255 258 258 263 268 276 287 294 292 301 301 304 308 309 312 310 309 309 312 313 312 310 310 311 314 314 314 314 316 315 313 312 310 308 308 307 308 307 306 304 305 305 303 302
239 243 248 250 253 257 260 259 259 274 281 289 296 293 294 303 305 306 304 308 310 308 307 305 307 308 308 307 308 309 309 308 308 310 312 311 309 308 305 304 304 304 303 303 303 302 303 302 301
233 239 246 251 252 255 260 260 265 272 276 282 290 291 296 298 299 301 308 308 309 308 309 308 305 304 303 305 306 307 307 306 305 305 305 305 305 304 303 303 302 302 302 301 299 299 300 301 299
240 243 248 254 254 255 259 262 263 271 274 279 286 289 297 298 297 298 301 304 305 305 304 305 304 303 303 303 303 305 305 304 303 302 302 302 301 300 300 300 300 299 301 300 299 298 298 298 297
Height
5913 5912 5912 5912 5911 5910 5908 5908 5907 5907 5906 5905 5904 5903 5903 5902 5902 5902 5899 5897 5896 5895 5895 5894 5894 5894 5894 5893 5893 5893 5893 5893 5892 5892 5892 5892 5891 5891 5891 5891 5891 5891 5892 5892 5893 5893 5893 5893 5894
5915 5914 5914 5914 5912 5911 5910 5909 5909 5909 5908 5906 5906 5905 5904 5903 5902 5900 5899 5897 5896 5895 5895 5895 5895 5894 5894 5894 5894 5894 5894 5894 5893 5893 5893 5893 5893 5892 5892 5892 5892 5892 5892 5893 5893 5893 5893 5893 5893
5916 5916 5916 5915 5913 5913 5912 5911 5911 5910 5909 5908 5907 5907 5906 5904 5903 5902 5900 5898 5897 5896 5896 5896 5896 5895 5895 5895 5895 5895 5895 5894 5894 5894 5894 5893 5893 5893 5893 5892 5892 5892 5892 5893 5893 5893 5893 5893 5893
5918 5918 5917 5916 5915 5914 5913 5913 5912 5912 5911 5910 5909 5908 5907 5906 5904 5903 5901 5899 5898 5897 5897 5897 5897 5896 5896 5896 5896 5896 5896 5895 5895 5895 5895 5894 5894 5893 5893 5893 5893 5892 5892 5893 5893 5893 5893 5893 5893
5920 5920 5918 5917 5916 5915 5915 5914 5914 5914 5912 5911 5910 5909 5908 5907 5905 5904 5902 5901 5900 5899 5898 5898 5898 5898 5898 5898 5897 5897 5897 5896 5896 5896 5895 5895 5894 5894 5894 5893 5893 5893 5892 5892 5893 5893 5893 5893 5893
5923 5921 5920 5919 5918 5917 5917 5917 5916 5915 5914 5913 5912 5911 5909 5909 5907 5906 5904 5903 5902 5901 5900 5900 5899 5899 5899 5899 5898 5898 5898 5897 5897 5896 5895 5895 5895 5894 5894 5894 5893 5893 5892 5892 5892 5892 5892 5893 5893
5924 5923 5922 5922 5921 5920 5920 5919 5918 5917 5916 5915 5913 5912 5911 5910 5909 5907 5906 5905 5904 5903 5902 5901 5901 5900 5900 5899 5899 5899 5898 5898 5897 5896 5896 5895 5894 5894 5894 5893 5893 5893 5892 5892 5892 5892 5892 5892 5892
5925 5925 5924 5923 5923 5922 5921 5921 5920 5918 5918 5917 5915 5914 5913 5912 5910 5909 5908 5906 5906 5905 5904 5903 5902 5902 5901 5900 5900 5899 5899 5898 5897 5896 5895 5895 5894 5894 5893 5893 5893 5892 5892 5891 5891 5891 5891 5891 5891
5926 5927 5925 5925 5924 5924 5923 5922 5921 5920 5919 5918 5917 5916 5914 5913 5912 5911 5909 5908 5907 5906 5905 5904 5904 5903 5902 5902 5900 5900 5900 5899 5898 5897 5895 5894 5894 5893 5893 5893 5892 5892 5892 5891 5891 5891 5890 5890 5890
5928 5928 5927 5927 5926 5926 5925 5924 5923 5921 5920 5920 5918 5917 5916 5915 5914 5913 5911 5910 5909 5907 5906 5905 5904 5904 5903 5903 5902 5901 5900 5899 5898 5897 5896 5894 5894 5893 5892 5892 5892 5891 5891 5890 5890 5890 5889 5889 5889
5929 5929 5928 5928 5927 5927 5926 5926 5924 5922 5922 5921 5919 5918 5917 5916 5915 5915 5913 5912 5911 5909 5908 5906 5905 5905 5904 5903 5903 5902 5901 5900 5899 5897 5896 5895 5894 5892 5892 5891 5891 5891 5890 5889 5889 5889 5888 5888 5887
5930 5930 5929 5929 5928 5928 5928 5927 5926 5924 5924 5923 5921 5919 5919 5918 5917 5916 5915 5914 5912 5911 5910 5908 5907 5906 5905 5904 5903 5902 5901 5900 5899 5897 5896 5895 5894 5893 5892 5891 5890 5890 5889 5889 5888 5887 5887 5887 5886
5931 5931 5930 5930 5930 5929 5929 5928 5927 5926 5924 5923 5922 5921 5920 5919 5918 5917 5916 5915 5913 5912 5911 5910 5908 5907 5906 5905 5904 5902 5901 5900 5899 5897 5896 5895 5894 5892 5891 5890 5889 5889 5888 5888 5887 5886 5886 5885 5885
5931 5931 5931 5930 5930 5930 5930 5929 5928 5927 5925 5924 5923 5922 5921 5920 5920 5918 5917 5916 5914 5913 5912 5910 5909 5908 5906 5905 5904 5903 5902 5901 5899 5898 5896 5895 5894 5892 5891 5890 5889 5888 5887 5886 5885 5885 5884 5883 5883
5932 5932 5932 5931 5931 5930 5931 5930 5929 5928 5927 5925 5925 5923 5922 5922 5920 5919 5918 5916 5915 5913 5912 5911 5909 5908 5907 5906 5905 5903 5902 5901 5900 5898 5897 5895 5894 5893 5891 5890 5889 5888 5887 5885 5884 5883 5883 5882 5882
5931 5932 5932 5932 5931 5930 5931 5931 5930 5928 5928 5926 5925 5924 5923 5922 5922 5920 5918 5917 5916 5914 5913 5911 5910 5909 5908 5906 5905 5904 5902 5901 5900 5898 5897 5895 5894 5893 5891 5890 5889 5887 5886 5884 5883 5883 5882 5881 5880
5931 5931 5931 5932 5931 5931 5930 5930 5929 5928 5928 5927 5926 5925 5924 5923 5922 5921 5919 5918 5916 5915 5913 5912 5911 5909 5908 5907 5905 5904 5902 5901 5899 5898 5897 5896 5894 5892 5891 5889 5888 5887 5885 5884 5883 5881 5880 5878 5877
5930 5930 5930 5930 5931 5930 5930 5930 5929 5928 5927 5927 5927 5926 5925 5923 5922 5921 5919 5918 5916 5915 5914 5912 5911 5909 5908 5907 5905 5903 5902 5901 5899 5898 5897 5895 5894 5892 5890 5889 5887 5886 5884 5883 5881 5880 5878 5877 5876
5929 5929 5929 5928 5929 5929 5929 5929 5928 5927 5927 5926 5925 5925 5924 5923 5922 5921 5919 5918 5916 5915 5914 5912 5911 5910 5908 5907 5905 5903 5902 5900 5899 5898 5896 5894 5893 5891 5889 5887 5886 5885 5883 5882 5880 5879 5877 5876 5874
5927 5927 5927 5927 5928 5928 5927 5927 5927 5927 5926 5925 5925 5925 5924 5923 5922 5921 5919 5918 5916 5915 5913 5912 5910 5909 5907 5906 5905 5903 5902 5900 5899 5897 5896 5894 5892 5890 5888 5886 5885 5883 5882 5880 5878 5877 5875 5874 5873
5924 5924 5925 5926 5926 5926 5926 5926 5925 5925 5924 5924 5923 5923 5923 5922 5921 5920 5918 5917 5916 5914 5912 5911 5909 5908 5906 5905 5903 5902 5900 5899 5897 5896 5894 5893 5891 5889 5887 5885 5883 5882 5880 5878 5877 5875 5873 5872 5870
5922 5923 5923 5924 5924 5924 5925 5924 5924 5923 5922 5922 5922 5921 5920 5920 5920 5919 5917 5915 5914 5913 5911 5910 5908 5906 5905 5903 5902 5900 5899 5897 5895 5894 5893 5891 5889 5887 5886 5884 5882 5880 5878 5876 5874 5873 5871 5870 5868
5919 5920 5921 5921 5922 5922 5922 5922 5922 5920 5920 5920 5920 5920 5919 5919 5918 5917 5915 5914 5913 5911 5910 5908 5906 5905 5903 5901 5900 5898 5897 5895 5893 5892 5890 5889 5887 5885 5884 5882 5880 5878 5876 5874 5873 5871 5869 5867 5866
5916 5917 5918 5918 5919 5919 5920 5920 5919 5918 5918 5918 5918 5918 5917 5917 5915 5914 5913 5912 5911 5910 5908 5906 5905 5903 5901 5900 5898 5896 5894 5892 5891 5890 5888 5886 5884 5883 5881 5879 5878 5876 5874 5872 5870 5868 5866 5864 5862
5914 5915 5915 5915 5915 5916 5916 5916 5917 5916 5915 5915 5916 5916 5915 5914 5913 5912 5911 5910 5908 5907 5905 5904 5903 5901 5898 5897 5896 5894 5892 5890 5888 5886 5885 5883 5881 5879 5878 5876 5874 5872 5871 5869 5867 5865 5863 5861 5860
5910 5912 5912 5912 5912 5912 5912 5912 5914 5913 5912 5912 5912 5912 5912 5911 5909 5908 5907 5906 5905 5904 5902 5900 5899 5898 5896 5894 5893 5891 5889 5886 5885 5883 5881 5879 5878 5876 5874 5872 5870 5869 5867 5865 5863 5861 5860 5858 5856
5907 5908 5909 5909 5908 5909 5909 5909 5910 5909 5909 5909 5909 5908 5908 5907 5906 5905 5904 5903 5902 5900 5899 5897 5895 5894 5892 5891 5889 5887 5885 5883 5881 5879 5877 5875 5873 5872 5870 5868 5866 5864 5862 5861 5859 5857 5855 5853 5851
5903 5904 5904 5904 5904 5904 5905 5905 5906 5905 5905 5905 5904 5904 5903 5903 5903 5901 5900 5899 5898 5897 5895 5892 5891 5889 5888 5886 5884 5883 5881 5879 5877 5875 5873 5871 5869 5867 5865 5863 5862 5859 5857 5855 5854 5852 5850 5848 5846
5899 5899 5899 5900 5900 5900 5900 5903 5902 5902 5902 5902 5901 5900 5900 5900 5899 5897 5896 5895 5893 5892 5890 5888 5886 5884 5882 5881 5879 5877 5876 5874 5872 5870 5868 5866 5864 5862 5860 5858 5856 5854 5852 5850 5848 5846 5844 5842 5840
5894 5894 5895 5896 5896 5896 5896 5899 5898 5897 5897 5897 5896 5896 5896 5895 5895 5894 5892 5890 5889 5887 5886 5884 5881 5879 5877 5876 5874 5872 5870 5868 5866 5864 5862 5860 5858 5856 5854 5852 5850 5848 5846 5844 5842 5840 5838 5836 5834